Location: Bismarck
(46.7731°N, 100.8200°W)
Time: 14:12:22
(UTC-06:00)

ISS - Visible Passes

Search period start: 18 January 2017 00:00
Search period end: 28 January 2017 00:00
Orbit: 400 x 410 km, 51.6° (Epoch: 19 January)

Date Brightness Start Highest point End Pass type
(mag) Time Alt. Az. Time Alt. Az. Time Alt. Az.
18 Jan -0.9 05:48:45 20° SE 05:48:45 20° SE 05:49:52 10° SE visible
19 Jan -1.1 06:31:40 15° SSW 06:31:40 15° SSW 06:32:54 10° S visible
27 Jan -0.9 19:25:43 10° S 19:26:25 13° SSE 19:26:25 13° SSE visible
